Powrót do katalogu

STARLINK-36888

AktywnyŁącznośćVLEO
NORAD 68004·PAYLOAD·🇺🇸 United States

Wystrzelony Feb 27, 2026 z Vandenberg Space Force Base

Loading…

Następne Przeloty (najbliższe 24 godziny)

TLE

ŚwieżeSource: CelesTrak SupGP

Epoka: Sep 14, 2026, 20:58 UTC

1 68004C 26039U   26257.87409722  .00058031  00000+0  21020-2 0  2579
2 68004  43.0010  60.8715 0001430 275.0301  48.9919 15.27548151    11

Śledź STARLINK-36888 w czasie rzeczywistym z AllMySat

Download on the App Store